(129) Antigone
ephemeris date magn radius delta ra dec elong phase
Today30 Apr 202511.72.354 AU2.173 AU20h51m-10°53'87.4°25.3°
Opposition5 Aug 202510.02.526 AU1.512 AU21h01m-15°58'179.0°0.4°
(129) Antigone - 2025-04-30
astro.vanbuitenen.nl


 
-1 year
-1 month
-1 day
Now
+1 day
+1 month
+1 year

The interactive orbit chart above shows the body's path through the solar system and its position at the given date. Green and blue lines are shown perpendicular to the ecliptic plane: Green if the path is above the ecliptic plane, blue if it is below. (Left-click and drag to rotate the view; Right-click and drag to move the view; Use scroll wheel to zoom in our out.)

The orbital elements of Antigone are:

            e (Eccentricity)                : 0.2130847
            a (Semimajor axis)              : 2.8687790
            i (Inclination)                 : 12.26909
            Ω (Longitude of ascending node) : 135.65436
            ω (Argument of perihelion)      : 110.57265
            M (Mean anomaly)                : 27.02675
            Epoch                           : 2025 May 05

            L (Longitude of perihelion)     : 66.66631
            B (Latitude of perihelion)      : 11.47564
            P (Orbital period in years)     : 4.86            
        

The light curve chart below shows the estimated development of the minor planet's magnitude.


The all-sky chart below shows the path of the minor planet over the same period as the light curve. The current position is marked yellow.





The following chart shows the path of the minor planet in the next few days. The field of view is optimized for (~10x50) binoculars and finderscopes. A more printer-friendly version of the same chart can be found below.




Ephemerides:
Date       Time       RA (2000)    DEC (2000)    delta   radius  elong  phase   PA    magn
2025-04-30 00:00 UT   20 51 01.2   -10 53 28     2.173    2.354   87.4   25.3   255   11.7 
2025-04-30 14:18 UT   20 51 42.8   -10 51 27     2.167    2.355   87.8   25.3   254   11.7 
2025-05-01 00:00 UT   20 52 10.8   -10 50 06     2.162    2.355   88.1   25.3   254   11.7 
2025-05-02 00:00 UT   20 53 19.3   -10 46 49     2.152    2.357   88.8   25.3   254   11.7 
2025-05-03 00:00 UT   20 54 26.8   -10 43 35     2.141    2.358   89.5   25.3   254   11.7 
2025-05-04 00:00 UT   20 55 33.2   -10 40 26     2.130    2.359   90.2   25.3   254   11.7 
2025-05-05 00:00 UT   20 56 38.5   -10 37 21     2.120    2.361   90.9   25.3   254   11.7 
2025-05-06 00:00 UT   20 57 42.8   -10 34 21     2.109    2.362   91.5   25.3   254   11.7 
2025-05-07 00:00 UT   20 58 46.1   -10 31 26     2.098    2.364   92.2   25.2   253   11.6 
2025-05-08 00:00 UT   20 59 48.2   -10 28 36     2.088    2.365   93.0   25.2   253   11.6 
2025-05-09 00:00 UT   21 00 49.2   -10 25 50     2.077    2.367   93.7   25.2   253   11.6 
2025-05-10 00:00 UT   21 01 49.1   -10 23 11     2.067    2.368   94.4   25.2   253   11.6 
2025-05-11 00:00 UT   21 02 47.9   -10 20 37     2.056    2.370   95.1   25.1   253   11.6 
2025-05-12 00:00 UT   21 03 45.5   -10 18 08     2.046    2.371   95.8   25.1   253   11.6 
2025-05-13 00:00 UT   21 04 42.0   -10 15 45     2.035    2.373   96.5   25.0   253   11.6 
2025-05-14 00:00 UT   21 05 37.3   -10 13 29     2.025    2.374   97.3   25.0   252   11.6 
2025-05-15 00:00 UT   21 06 31.4   -10 11 18     2.014    2.376   98.0   24.9   252   11.6 
2025-05-16 00:00 UT   21 07 24.4   -10 09 14     2.004    2.378   98.8   24.9   252   11.5 
2025-05-17 00:00 UT   21 08 16.1   -10 07 16     1.993    2.379   99.5   24.8   252   11.5 
2025-05-18 00:00 UT   21 09 06.6   -10 05 25     1.983    2.381  100.2   24.7   252   11.5 
2025-05-19 00:00 UT   21 09 55.9   -10 03 41     1.972    2.382  101.0   24.6   252   11.5 
2025-05-20 00:00 UT   21 10 43.9   -10 02 04     1.962    2.384  101.8   24.6   252   11.5 
2025-05-21 00:00 UT   21 11 30.6   -10 00 34     1.952    2.385  102.5   24.5   251   11.5 
2025-05-22 00:00 UT   21 12 16.0   -09 59 12     1.941    2.387  103.3   24.4   251   11.5 
2025-05-23 00:00 UT   21 13 00.2   -09 57 57     1.931    2.389  104.1   24.3   251   11.5 
2025-05-24 00:00 UT   21 13 43.0   -09 56 50     1.921    2.390  104.9   24.2   251   11.4 
2025-05-25 00:00 UT   21 14 24.5   -09 55 51     1.911    2.392  105.7   24.1   251   11.4 
2025-05-26 00:00 UT   21 15 04.6   -09 55 01     1.900    2.393  106.5   23.9   251   11.4 
2025-05-27 00:00 UT   21 15 43.3   -09 54 19     1.890    2.395  107.3   23.8   251   11.4 
2025-05-28 00:00 UT   21 16 20.7   -09 53 45     1.880    2.397  108.1   23.7   251   11.4 
2025-05-29 00:00 UT   21 16 56.6   -09 53 20     1.870    2.398  108.9   23.6   250   11.4 
2025-05-30 00:00 UT   21 17 31.2   -09 53 04     1.861    2.400  109.7   23.4   250   11.4 


    Terminology:
            
    delta:  distance between minor planet and earth in AU
    radius: distance between minor planet and sun in AU
    magn:   magnitude (brightness) estimate    
    ra:     right ascension in hours (24h = 360deg)
    dec:    declination in degrees
    elong:  elongation in degrees (angle sun-earth-minor planet)    
    phase:  phase angle in degrees (angle sun-minor planet-earth)        
    AU:     Astronomical Unit (mean distance between earth and sun: 149597870.7 km
    

Orbital elements provided by the MPC (Minor Planet Center).
Calculations by a modified version of AAPlus, a C# implementation of the AA+ project by PJ Naughter from the algorithms presented in the book "Astronomical Algorithms" by Jean Meeus.
NGC2000 dso catalog and star labels from VizieR as provided by the Strasbourg astronomical Data Center.
Tycho2 catalog from the ESO archive.